TIME,DELAY(SENSOR),PRES,OXYGEN,RAWTEMP,T(OPTODE),TCPHASE,FLUOR,BETA(BETA700),BETA(BETA412),BETA(BETA440),CDOM,C(CSC),ED(ED412.20),ED(ED444.00),ED(ED489.60),ED(ED554.30),LU(LU412.10),LU(LU443.90),LU(LU489.70),LU(LU554.70),COMP,TILTX,TILTY,CHECK
1336621488,5809,889.2399902343750000,36.8167190551757800,564.1702270507812000,4.3565831184387210,56.0376205444335940,54,98,101,78,83,15500,0,0,0,0,2147123602,2147777088,2147573412,2147572653,1448,2,13,576
1336625084,5810,960.1500244140625000,43.9510993957519500,570.1179809570312000,4.1718921661376950,55.0419311523437500,55,100,102,78,83,15499,0,0,0,0,2147126089,2147773897,2147569892,2147572489,2161,2,13,26846
1336628684,5809,964.4299926757812000,46.2584686279296900,573.9334716796875000,4.0532588958740230,54.7584304809570300,55,101,102,79,82,15498,0,0,0,0,2147126491,2147777737,2147574811,2147571136,158,2,13,20105
1336632284,5810,1004.4099731445312000,46.2459602355957000,575.8662719726562000,3.9931159019470215,54.7767791748046900,54,99,102,79,82,15497,0,0,0,0,2147123190,2147774537,2147578285,2147573970,463,2,13,23111
1336635884,5809,1002.8800048828125000,46.5659294128418000,577.3488769531250000,3.9469590187072754,54.7535591125488300,54,100,103,78,83,15496,0,0,0,0,2147125366,2147771867,2147573385,2147569462,866,2,13,54813
1336639484,5808,1008.7100219726562000,47.5000801086425800,578.4281005859375000,3.9133489131927490,54.6374092102050800,54,100,100,79,83,15496,0,0,0,0,2147125312,2147777078,2147571913,2147570532,205,2,13,33300
1336643084,5810,1006.1900024414062000,47.5346794128418000,579.1599121093750000,3.8905539512634277,54.6410102844238300,55,102,103,80,84,15492,0,0,0,0,2147125824,2147769874,2147571510,2147569517,95,2,13,61087
1336646684,5809,1011.8400268554688000,47.5852508544921900,578.8171997070312000,3.9012300968170166,54.6255187988281250,54,101,102,78,83,15490,0,0,0,0,2147124754,2147771520,2147571593,2147570294,279,2,13,48101
1336650284,5808,1009.3200073242188000,48.3251991271972660,579.2152709960938000,3.8888258934020996,54.5313606262207000,54,101,103,78,83,15490,0,0,0,0,2147123693,2147777526,2147572150,2147568155,630,2,13,49265
1336653884,5810,1012.7299804687500000,48.2785797119140600,579.9500732421875000,3.8659319877624510,54.5468406677246100,55,99,102,80,83,15490,0,0,0,0,2147128338,2147774866,2147571977,2147573110,3435,2,13,34686
1336657484,5811,1015.0800170898438000,47.4239196777343750,578.7830810546875000,3.9022920131683350,54.6463203430175800,55,102,101,78,84,15488,0,0,0,0,2147126226,2147770587,2147572681,2147571337,3568,2,13,16946
1336661084,5808,1022.9600219726562000,48.2299003601074200,578.7451782226562000,3.9034729003906250,54.5406112670898440,54,102,101,81,84,15488,0,0,0,0,2147124498,2147771904,2147570989,2147570724,309,2,13,12853
1336664684,5811,1017.9600219726562000,47.5329513549804700,579.1881713867188000,3.8896729946136475,54.6423797607421900,54,99,103,77,83,15490,0,0,0,0,2147127634,2147773613,2147572544,2147572251,149,2,13,13413
1336668284,5807,1019.1099853515625000,47.5930709838867200,578.7255249023438000,3.9040849208831787,54.6287307739257800,55,99,102,78,82,15485,0,0,0,0,2147124224,2147774774,2147572443,2147572717,125,2,13,63919
1336671884,5809,1020.2000122070312000,46.9074897766113300,578.9166870117188000,3.8981289863586426,54.7206993103027340,55,102,103,78,83,15487,0,0,0,0,2147124800,2147768996,2147574061,2147571712,3297,2,13,44164
1336675484,5809,1028.4100341796875000,47.8037185668945300,578.5595703125000000,3.9092519283294678,54.5976600646972660,55,102,103,78,81,15484,0,0,0,0,2147126820,2147770148,2147568768,2147570514,3248,2,13,29884
1336679084,5809,1023.1099853515625000,46.8562583923339840,578.0930175781250000,3.9237880706787110,54.7178611755371100,55,104,101,79,83,15485,0,0,0,0,2147125613,2147770706,2147572324,2147573714,105,2,13,26562
1336682684,5808,1019.7600097656250000,47.2347908020019500,579.0706176757812000,3.8933351039886475,54.6831817626953100,55,100,101,77,83,15482,0,0,0,0,2147126573,2147770422,2147573787,2147570404,647,2,13,130
1336686284,5810,1022.0999755859375000,46.9182281494140600,580.0878295898438000,3.8616409301757812,54.7387504577636700,54,99,102,79,83,15484,0,0,0,0,2147127241,2147771136,2147572388,2147571520,82,2,13,24094
1336689884,5807,1022.3900146484375000,47.3263511657714840,579.2078247070312000,3.8890609741210938,54.6695289611816400,55,101,102,78,83,15482,0,0,0,0,2147125805,2147775040,2147576283,2147573458,432,2,13,41304
1336693484,5810,1024.2900390625000000,47.1967811584472660,578.8303833007812000,3.9008200168609620,54.6792716979980500,55,101,103,78,83,15473,0,0,0,0,2147123474,2147775213,2147576768,2147575753,356,2,13,16784
1336697084,5808,1027.7600097656250000,47.2904090881347660,578.8671875000000000,3.8996698856353760,54.6731300354003900,55,101,100,78,84,15477,0,0,0,0,2147128347,2147778669,2147570468,2147572324,10,2,13,62548
1336700684,5811,1030.2500000000000000,46.9803390502929700,578.6859130859375000,3.9053189754486084,54.7079505920410160,55,99,101,78,84,15476,0,0,0,0,2147124690,2147774902,2147572580,2147571026,17,2,13,60162
1336704284,5808,1025.6600341796875000,46.5556106567382800,578.5556030273438000,3.9093780517578125,54.7713394165039060,55,100,103,78,82,15476,0,0,0,0,2147126710,2147778861,2147571830,2147572507,126,2,13,48626
1336707884,5807,1029.0400390625000000,46.6525192260742200,579.1140747070312000,3.8919789791107178,54.7624015808105500,55,100,104,79,83,15471,0,0,0,0,2147124370,2147775186,2147570843,2147571145,227,2,13,33325
1336711484,5813,1024.4499511718750000,46.7494506835937500,579.6832885742188000,3.8742449283599854,54.7544784545898440,54,100,102,78,84,15473,0,0,0,0,2147127442,2147771702,2147570770,2147571547,3405,2,13,23496
1336715084,5809,1028.7399902343750000,47.2836303710937500,579.0958251953125000,3.8925499916076660,54.6732406616210940,55,101,102,79,83,15473,0,0,0,0,2147127616,2147772507,2147573110,2147566820,3332,2,13,14103
1336718684,5807,1029.6099853515625000,47.7159690856933600,579.5228271484375000,3.8792479038238525,54.6183090209960940,55,98,102,78,83,15469,0,0,0,0,2147125897,2147774070,2147568667,2147572809,3422,2,13,9040
1336722284,5810,1036.0600585937500000,47.7466506958007800,579.4819946289062000,3.8805179595947266,54.6102104187011700,54,101,101,79,84,15472,0,0,0,0,2147125001,2147770441,2147573010,2147573074,10,2,13,45321
1336725884,5808,1025.1199951171875000,46.3939094543457000,579.1229248046875000,3.8917059898376465,54.7974014282226560,55,99,103,78,82,15467,0,0,0,0,2147124132,2147777353,2147573650,2147574381,246,2,13,8049
1336729484,5808,1026.1600341796875000,46.7120780944824200,579.3129882812500000,3.8857839107513428,54.7536201477050800,55,99,102,79,85,15470,0,0,0,0,2147126345,2147774162,2147571904,2147575744,138,2,13,37777
1336733084,5808,1025.1800537109375000,46.2654113769531250,579.6248168945312000,3.8760700225830080,54.8171195983886700,56,99,100,78,83,15469,0,0,0,0,2147129773,2147776950,2147573440,2147569709,506,2,13,47856
1336736684,5811,1034.6600341796875000,47.6498298645019500,578.9722900390625000,3.8963990211486816,54.6168594360351560,55,101,102,78,85,15469,0,0,0,0,2147129024,2147775323,2147576539,2147570761,3179,2,13,45919
1336740284,5812,1031.1199951171875000,46.4021911621093750,579.3101196289062000,3.8858740329742430,54.7974700927734400,55,99,100,78,83,15469,0,0,0,0,2147126966,2147772077,2147571172,2147573586,203,2,13,5403
1336743884,5807,1034.2299804687500000,47.6368103027343750,578.7852172851562000,3.9022250175476074,54.6221504211425800,55,102,102,79,83,15460,0,0,0,0,2147125924,2147775451,2147572598,2147572955,3588,2,13,14296
1336747484,5808,1027.1999511718750000,46.5000305175781250,578.1530761718750000,3.9219129085540770,54.7739906311035160,55,100,102,79,84,15462,0,0,0,0,2147125403,2147773339,2147569755,2147572790,307,2,13,52509
1336751084,5809,1031.9499511718750000,46.2742691040039060,577.0283203125000000,3.9569439888000490,54.7882499694824200,55,100,101,78,83,15459,0,0,0,0,2147128950,2147769764,2147572928,2147573522,238,2,13,18148
1336754684,5807,1022.4299926757812000,45.1830406188964840,577.9353027343750000,3.9286980628967285,54.9550590515136700,55,100,102,79,84,15458,0,0,0,0,2147127506,2147771227,2147574025,2147571748,83,2,13,22543
1336758284,5807,1025.2700195312500000,44.2807388305664060,578.6113281250000000,3.9076418876647950,55.0855293273925800,56,102,101,80,83,15446,0,0,0,0,2147124443,2147771181,2147572790,2147570532,211,2,13,50109
1336761884,5809,1022.5800170898438000,46.3460807800293000,577.6472167968750000,3.9376718997955322,54.7883300781250000,54,99,101,79,84,15458,0,0,0,0,2147124882,2147771291,2147574125,2147573705,53,2,13,64874
1336765484,5812,1027.9499511718750000,46.5095481872558600,577.6057739257812000,3.9389610290527344,54.7648887634277340,55,99,102,79,84,15457,0,0,0,0,2147122633,2147772059,2147570084,2147572041,3494,2,13,2127
1336765857,5809,1025.5200195312500000,46.2440986633300800,577.4711914062500000,3.9431509971618652,54.8006515502929700,55,104,101,79,83,15457,0,0,0,0,2147125504,2147773942,2147571574,2147570669,3480,2,13,61800
